Погода в Курье

Россия / Удмуртская Республика     57°42′36″N   52°04′23″E
темп.,
°C
ветер,
м/с
пор.,
м/с
влажн.,
%
обл.,
%
осадки,
мм/ч
давл.,
гПа
погр.,
м
14 июня, пн
пн1401:00+15ююв379418 0.1 1015122
04:00+14ююв359612 0.1 101598
07:00+18ю368298 0.0 1015239
10:00+21ю5771100 0.1 1015620
13:00+25ююз595428 0.0 10141791
16:00+25юз5856100 0.1 10141681
19:00+22з487599 0.2 1014420
22:00+18зюз3586100 0.3 101496
15 июня, вт
вт1501:00+16зюз34933 0.0 101456
04:00+14зсз22923 0.0 101423
07:00+19з127719 0.0 1015223
10:00+23юз226255 0.0 1014698
13:00+25зсз345026 0.5 10141829
16:00+24зсз2260100 0.5 1013517
19:00+23зюз1170100 0.0 101317
22:00+18ююз127998 0.0 101311
16 июня, ср
ср1601:00+16ююз22875 0.0 101315
04:00+15ююв22905 0.0 101212
07:00+20ююв368032 0.0 1012262
10:00+25юв4659100 0.0 1010684
13:00+27ююв484899 0.0 10081484
16:00+27ю69535 0.0 10051591
19:00+24ююз7126569 0.9 1004598
22:00+16ссз41096100 10.9 1006336
17 июня, чт
чт1701:00+15ссз81394100 0.2 1007626
04:00+10ссз614920 0.2 1010504
07:00+12ссз6128693 0.0 1012543
10:00+16ссз686771 0.0 10131443
13:00+18сз68495 0.1 10142018
16:00+19сз68465 0.1 10152173
19:00+17сз47605 0.0 1016469
22:00+14сз6126462 0.0 1018452
18 июня, пт
пт1801:00+12ссз4107299 0.0 1019347
04:00+11ссз41076100 0.0 1021341
07:00+12с487381 0.0 1022365
10:00+16ссз56572 0.1 10231548
13:00+18сз574433 0.0 10232256
16:00+19сз674892 0.0 10232088
19:00+17зсз47628 0.0 1022467
22:00+13зюз3575100 0.0 102284